Time,TemperatureF,DewpointF,PressureIn,WindDirection,WindDirectionDegrees,WindSpeedMPH,WindSpeedGustMPH,Humidity,HourlyPrecipIn,Conditions,Clouds,dailyrainin,SoftwareType,DateUTC
2013-02-18 00:00:00,23.9,10.5,30.24,West,265,9.0,17.0,56,0.00,,,0.00,Wunderground v.1.15,2013-02-18 05:00:00,
2013-02-18 00:05:00,23.9,10.1,30.25,WNW,292,6.0,15.0,55,0.00,,,0.00,Wunderground v.1.15,2013-02-18 05:05:00,
2013-02-18 00:10:00,23.8,10.0,30.25,WNW,302,8.0,14.0,55,0.00,,,0.00,Wunderground v.1.15,2013-02-18 05:10:00,
2013-02-18 00:15:00,23.8,10.4,30.25,West,264,9.0,17.0,56,0.00,,,0.00,Wunderground v.1.15,2013-02-18 05:15:00,
2013-02-18 00:20:00,23.8,10.4,30.25,West,281,8.0,9.0,56,0.00,,,0.00,Wunderground v.1.15,2013-02-18 05:20:00,
2013-02-18 00:25:00,23.8,10.4,30.25,WNW,282,6.0,15.0,56,0.00,,,0.00,Wunderground v.1.15,2013-02-18 05:25:00,
2013-02-18 00:30:00,23.7,10.3,30.25,West,271,9.0,11.0,56,0.00,,,0.00,Wunderground v.1.15,2013-02-18 05:30:00,
2013-02-18 00:35:00,23.7,10.3,30.25,WNW,284,9.0,11.0,56,0.00,,,0.00,Wunderground v.1.15,2013-02-18 05:35:00,
2013-02-18 00:40:00,23.6,10.2,30.25,West,270,8.0,9.0,56,0.00,,,0.00,Wunderground v.1.15,2013-02-18 05:40:00,
2013-02-18 00:45:00,23.5,10.5,30.25,WNW,285,9.0,12.0,57,0.00,,,0.00,Wunderground v.1.15,2013-02-18 05:45:00,
2013-02-18 00:50:00,23.4,10.4,30.26,West,269,8.0,8.0,57,0.00,,,0.00,Wunderground v.1.15,2013-02-18 05:50:00,
2013-02-18 00:55:00,23.4,10.4,30.26,WNW,283,5.0,12.0,57,0.00,,,0.00,Wunderground v.1.15,2013-02-18 05:55:00,
2013-02-18 01:00:00,23.3,10.3,30.26,West,272,5.0,7.0,57,0.00,,,0.00,Wunderground v.1.15,2013-02-18 06:00:00,
2013-02-18 01:05:00,23.2,10.2,30.26,West,269,7.0,13.0,57,0.00,,,0.00,Wunderground v.1.15,2013-02-18 06:05:00,
2013-02-18 01:10:00,23.1,10.5,30.26,West,271,5.0,10.0,58,0.00,,,0.00,Wunderground v.1.15,2013-02-18 06:10:00,
2013-02-18 01:15:00,23.1,10.1,30.26,WSW,257,7.0,12.0,57,0.00,,,0.00,Wunderground v.1.15,2013-02-18 06:15:00,
2013-02-18 01:20:00,23.1,10.1,30.26,West,275,9.0,9.0,57,0.00,,,0.00,Wunderground v.1.15,2013-02-18 06:20:00,
2013-02-18 01:25:00,23.1,9.7,30.26,West,269,8.0,20.0,56,0.00,,,0.00,Wunderground v.1.15,2013-02-18 06:25:00,
2013-02-18 01:30:00,23.1,9.7,30.27,West,275,7.0,8.0,56,0.00,,,0.00,Wunderground v.1.15,2013-02-18 06:30:00,
2013-02-18 01:35:00,23.0,9.6,30.27,WNW,283,5.0,13.0,56,0.00,,,0.00,Wunderground v.1.15,2013-02-18 06:35:00,
2013-02-18 01:40:00,22.9,9.5,30.26,WNW,297,6.0,8.0,56,0.00,,,0.00,Wunderground v.1.15,2013-02-18 06:40:00,
2013-02-18 01:45:00,22.9,9.5,30.26,West,261,11.0,11.0,56,0.00,,,0.00,Wunderground v.1.15,2013-02-18 06:45:00,
2013-02-18 01:50:00,22.8,9.4,30.27,WNW,300,4.0,7.0,56,0.00,,,0.00,Wunderground v.1.15,2013-02-18 06:50:00,
2013-02-18 01:55:00,22.7,9.3,30.27,NW,306,6.0,11.0,56,0.00,,,0.00,Wunderground v.1.15,2013-02-18 06:55:00,
2013-02-18 02:00:00,22.6,9.2,30.27,West,273,5.0,6.0,56,0.00,,,0.00,Wunderground v.1.15,2013-02-18 07:00:00,
2013-02-18 02:05:00,22.5,9.1,30.27,WNW,291,5.0,8.0,56,0.00,,,0.00,Wunderground v.1.15,2013-02-18 07:05:00,
2013-02-18 02:10:00,22.5,9.1,30.28,West,277,14.0,14.0,56,0.00,,,0.00,Wunderground v.1.15,2013-02-18 07:10:00,
2013-02-18 02:15:00,22.4,9.1,30.28,West,277,3.0,14.0,56,0.00,,,0.00,Wunderground v.1.15,2013-02-18 07:15:00,
2013-02-18 02:20:00,22.4,9.1,30.28,WNW,284,6.0,7.0,56,0.00,,,0.00,Wunderground v.1.15,2013-02-18 07:20:00,
2013-02-18 02:25:00,22.4,9.1,30.28,West,276,6.0,12.0,56,0.00,,,0.00,Wunderground v.1.15,2013-02-18 07:25:00,
2013-02-18 02:30:00,22.4,9.1,30.28,West,275,6.0,7.0,56,0.00,,,0.00,Wunderground v.1.15,2013-02-18 07:30:00,
2013-02-18 02:35:00,22.3,9.0,30.28,West,261,8.0,14.0,56,0.00,,,0.00,Wunderground v.1.15,2013-02-18 07:35:00,
2013-02-18 02:40:00,22.4,8.7,30.29,West,261,8.0,11.0,55,0.00,,,0.00,Wunderground v.1.15,2013-02-18 07:40:00,
2013-02-18 02:45:00,22.2,8.9,30.29,West,270,9.0,11.0,56,0.00,,,0.00,Wunderground v.1.15,2013-02-18 07:45:00,
2013-02-18 02:50:00,22.1,8.8,30.29,WNW,298,4.0,7.0,56,0.00,,,0.00,Wunderground v.1.15,2013-02-18 07:50:00,
2013-02-18 02:55:00,22.0,8.7,30.29,West,272,4.0,8.0,56,0.00,,,0.00,Wunderground v.1.15,2013-02-18 07:55:00,
2013-02-18 03:00:00,22.0,9.1,30.29,West,281,5.0,5.0,57,0.00,,,0.00,Wunderground v.1.15,2013-02-18 08:00:00,
2013-02-18 03:05:00,21.8,8.9,30.29,West,265,5.0,8.0,57,0.00,,,0.00,Wunderground v.1.15,2013-02-18 08:05:00,
2013-02-18 03:10:00,21.7,8.8,30.29,West,259,2.0,5.0,57,0.00,,,0.00,Wunderground v.1.15,2013-02-18 08:10:00,
2013-02-18 03:15:00,21.7,8.8,30.30,WSW,252,6.0,8.0,57,0.00,,,0.00,Wunderground v.1.15,2013-02-18 08:15:00,
2013-02-18 03:20:00,21.7,8.8,30.30,West,273,3.0,6.0,57,0.00,,,0.00,Wunderground v.1.15,2013-02-18 08:20:00,
2013-02-18 03:25:00,21.7,8.8,30.30,West,270,1.0,6.0,57,0.00,,,0.00,Wunderground v.1.15,2013-02-18 08:25:00,
2013-02-18 03:30:00,21.6,8.7,30.30,West,275,4.0,4.0,57,0.00,,,0.00,Wunderground v.1.15,2013-02-18 08:30:00,
2013-02-18 03:35:00,21.5,9.0,30.30,West,279,1.0,4.0,58,0.00,,,0.00,Wunderground v.1.15,2013-02-18 08:35:00,
2013-02-18 03:40:00,21.2,8.7,30.30,West,279,1.0,3.0,58,0.00,,,0.00,Wunderground v.1.15,2013-02-18 08:40:00,
2013-02-18 03:45:00,21.2,9.1,30.30,West,265,3.0,5.0,59,0.00,,,0.00,Wunderground v.1.15,2013-02-18 08:45:00,
2013-02-18 03:50:00,21.2,9.1,30.30,West,272,5.0,5.0,59,0.00,,,0.00,Wunderground v.1.15,2013-02-18 08:50:00,
2013-02-18 03:56:00,21.2,9.1,30.30,West,270,9.0,9.0,59,0.00,,,0.00,Wunderground v.1.15,2013-02-18 08:56:00,
2013-02-18 04:01:00,21.3,9.2,30.30,West,269,2.0,5.0,59,0.00,,,0.00,Wunderground v.1.15,2013-02-18 09:01:00,
2013-02-18 04:06:00,21.2,9.1,30.30,West,268,4.0,5.0,59,0.00,,,0.00,Wunderground v.1.15,2013-02-18 09:06:00,
2013-02-18 04:11:00,21.1,9.4,30.30,WSW,256,4.0,6.0,60,0.00,,,0.00,Wunderground v.1.15,2013-02-18 09:11:00,
2013-02-18 04:16:00,21.1,9.4,30.30,West,263,5.0,7.0,60,0.00,,,0.00,Wunderground v.1.15,2013-02-18 09:16:00,
2013-02-18 04:21:00,21.1,9.4,30.31,West,274,3.0,3.0,60,0.00,,,0.00,Wunderground v.1.15,2013-02-18 09:21:00,
2013-02-18 04:26:00,20.9,9.2,30.31,West,269,2.0,7.0,60,0.00,,,0.00,Wunderground v.1.15,2013-02-18 09:26:00,
2013-02-18 04:31:00,20.9,9.2,30.31,West,271,2.0,3.0,60,0.00,,,0.00,Wunderground v.1.15,2013-02-18 09:31:00,
2013-02-18 04:36:00,20.8,9.1,30.32,West,271,1.0,3.0,60,0.00,,,0.00,Wunderground v.1.15,2013-02-18 09:36:00,
2013-02-18 04:41:00,20.7,9.4,30.32,WSW,257,6.0,7.0,61,0.00,,,0.00,Wunderground v.1.15,2013-02-18 09:41:00,
2013-02-18 04:46:00,20.8,9.5,30.32,WNW,289,5.0,8.0,61,0.00,,,0.00,Wunderground v.1.15,2013-02-18 09:46:00,
2013-02-18 04:51:00,20.8,9.1,30.32,West,259,3.0,7.0,60,0.00,,,0.00,Wunderground v.1.15,2013-02-18 09:51:00,
2013-02-18 04:56:00,20.8,9.5,30.33,West,267,3.0,7.0,61,0.00,,,0.00,Wunderground v.1.15,2013-02-18 09:56:00,
2013-02-18 05:01:00,20.6,9.3,30.33,West,267,0.0,2.0,61,0.00,,,0.00,Wunderground v.1.15,2013-02-18 10:01:00,
2013-02-18 05:06:00,20.6,9.6,30.33,WSW,255,2.0,4.0,62,0.00,,,0.00,Wunderground v.1.15,2013-02-18 10:06:00,
2013-02-18 05:11:00,20.4,9.4,30.34,South,186,3.0,6.0,62,0.00,,,0.00,Wunderground v.1.15,2013-02-18 10:11:00,
2013-02-18 05:16:00,20.4,9.4,30.34,SSW,204,0.0,6.0,62,0.00,,,0.00,Wunderground v.1.15,2013-02-18 10:16:00,
2013-02-18 05:21:00,20.3,9.7,30.34,SW,232,1.0,2.0,63,0.00,,,0.00,Wunderground v.1.15,2013-02-18 10:21:00,
2013-02-18 05:26:00,20.3,9.7,30.34,SW,226,0.0,4.0,63,0.00,,,0.00,Wunderground v.1.15,2013-02-18 10:26:00,
2013-02-18 05:31:00,20.4,9.4,30.34,SW,214,0.0,3.0,62,0.00,,,0.00,Wunderground v.1.15,2013-02-18 10:31:00,
2013-02-18 05:36:00,20.4,9.8,30.34,WSW,258,3.0,5.0,63,0.00,,,0.00,Wunderground v.1.15,2013-02-18 10:36:00,
2013-02-18 05:41:00,20.5,9.5,30.35,West,265,3.0,5.0,62,0.00,,,0.00,Wunderground v.1.15,2013-02-18 10:41:00,
2013-02-18 05:46:00,20.6,9.6,30.35,West,275,4.0,5.0,62,0.00,,,0.00,Wunderground v.1.15,2013-02-18 10:46:00,
2013-02-18 05:51:00,20.7,9.7,30.35,West,269,4.0,7.0,62,0.00,,,0.00,Wunderground v.1.15,2013-02-18 10:51:00,
2013-02-18 05:56:00,20.8,9.8,30.35,WSW,250,2.0,7.0,62,0.00,,,0.00,Wunderground v.1.15,2013-02-18 10:56:00,
2013-02-18 06:01:00,20.8,9.8,30.35,West,269,2.0,4.0,62,0.00,,,0.00,Wunderground v.1.15,2013-02-18 11:01:00,
2013-02-18 06:06:00,20.7,9.7,30.35,WSW,256,1.0,6.0,62,0.00,,,0.00,Wunderground v.1.15,2013-02-18 11:06:00,
2013-02-18 06:11:00,20.6,9.6,30.36,West,259,1.0,2.0,62,0.00,,,0.00,Wunderground v.1.15,2013-02-18 11:11:00,
2013-02-18 06:16:00,20.5,9.5,30.36,West,259,1.0,2.0,62,0.00,,,0.00,Wunderground v.1.15,2013-02-18 11:16:00,
2013-02-18 06:21:00,20.4,9.4,30.36,SW,226,1.0,3.0,62,0.00,,,0.00,Wunderground v.1.15,2013-02-18 11:21:00,
2013-02-18 06:26:00,20.3,9.3,30.37,SW,224,2.0,3.0,62,0.00,,,0.00,Wunderground v.1.15,2013-02-18 11:26:00,
2013-02-18 06:31:00,20.3,9.7,30.36,West,263,2.0,3.0,63,0.00,,,0.00,Wunderground v.1.15,2013-02-18 11:31:00,
2013-02-18 06:36:00,20.3,9.7,30.36,West,266,2.0,4.0,63,0.00,,,0.00,Wunderground v.1.15,2013-02-18 11:36:00,
2013-02-18 06:41:00,20.4,9.8,30.37,West,261,2.0,4.0,63,0.00,,,0.00,Wunderground v.1.15,2013-02-18 11:41:00,
2013-02-18 06:46:00,20.4,9.8,30.37,West,261,4.0,5.0,63,0.00,,,0.00,Wunderground v.1.15,2013-02-18 11:46:00,
2013-02-18 06:51:00,20.4,9.4,30.37,West,261,4.0,6.0,62,0.00,,,0.00,Wunderground v.1.15,2013-02-18 11:51:00,
2013-02-18 06:56:00,20.6,9.6,30.38,WSW,257,4.0,7.0,62,0.00,,,0.00,Wunderground v.1.15,2013-02-18 11:56:00,
2013-02-18 07:01:00,20.8,9.8,30.38,West,261,3.0,4.0,62,0.00,,,0.00,Wunderground v.1.15,2013-02-18 12:01:00,
2013-02-18 07:06:00,20.9,9.5,30.38,West,261,5.0,6.0,61,0.00,,,0.00,Wunderground v.1.15,2013-02-18 12:06:00,
2013-02-18 07:11:00,20.9,9.5,30.38,West,268,4.0,5.0,61,0.00,,,0.00,Wunderground v.1.15,2013-02-18 12:11:00,
2013-02-18 07:16:00,20.8,9.8,30.38,West,264,2.0,5.0,62,0.00,,,0.00,Wunderground v.1.15,2013-02-18 12:16:00,
2013-02-18 07:21:00,20.7,9.7,30.39,West,267,1.0,3.0,62,0.00,,,0.00,Wunderground v.1.15,2013-02-18 12:21:00,
2013-02-18 07:26:00,20.6,9.6,30.39,SW,215,3.0,5.0,62,0.00,,,0.00,Wunderground v.1.15,2013-02-18 12:26:00,
2013-02-18 07:31:00,20.8,9.5,30.39,West,273,2.0,4.0,61,0.00,,,0.00,Wunderground v.1.15,2013-02-18 12:31:00,
2013-02-18 07:36:00,20.9,9.9,30.39,WSW,244,1.0,4.0,62,0.00,,,0.00,Wunderground v.1.15,2013-02-18 12:36:00,
2013-02-18 07:41:00,21.1,9.7,30.39,WSW,257,3.0,4.0,61,0.00,,,0.00,Wunderground v.1.15,2013-02-18 12:41:00,
2013-02-18 07:46:00,21.3,9.6,30.39,WSW,257,3.0,4.0,60,0.00,,,0.00,Wunderground v.1.15,2013-02-18 12:46:00,
2013-02-18 07:51:00,21.5,9.7,30.40,West,269,2.0,3.0,60,0.00,,,0.00,Wunderground v.1.15,2013-02-18 12:51:00,
2013-02-18 07:56:00,21.7,10.3,30.40,West,273,1.0,5.0,61,0.00,,,0.00,Wunderground v.1.15,2013-02-18 12:56:00,
2013-02-18 08:01:00,22.1,10.3,30.40,West,281,5.0,5.0,60,0.00,,,0.00,Wunderground v.1.15,2013-02-18 13:01:00,
2013-02-18 08:06:00,22.5,9.9,30.41,West,276,6.0,6.0,58,0.00,,,0.00,Wunderground v.1.15,2013-02-18 13:06:00,
2013-02-18 08:11:00,22.9,10.3,30.41,West,262,4.0,4.0,58,0.00,,,0.00,Wunderground v.1.15,2013-02-18 13:11:00,
2013-02-18 08:16:00,23.1,10.1,30.41,West,268,6.0,7.0,57,0.00,,,0.00,Wunderground v.1.15,2013-02-18 13:16:00,
2013-02-18 08:21:00,23.3,10.3,30.41,WNW,292,7.0,11.0,57,0.00,,,0.00,Wunderground v.1.15,2013-02-18 13:21:00,
2013-02-18 08:26:00,23.6,10.2,30.41,West,261,7.0,11.0,56,0.00,,,0.00,Wunderground v.1.15,2013-02-18 13:26:00,
2013-02-18 08:31:00,23.8,10.4,30.42,West,263,5.0,10.0,56,0.00,,,0.00,Wunderground v.1.15,2013-02-18 13:31:00,
2013-02-18 08:36:00,24.1,10.2,30.42,West,275,3.0,10.0,55,0.00,,,0.00,Wunderground v.1.15,2013-02-18 13:36:00,
2013-02-18 08:41:00,24.3,10.4,30.42,WNW,290,8.0,9.0,55,0.00,,,0.00,Wunderground v.1.15,2013-02-18 13:41:00,
2013-02-18 08:46:00,24.5,10.2,30.42,West,276,12.0,12.0,54,0.00,,,0.00,Wunderground v.1.15,2013-02-18 13:46:00,
2013-02-18 08:51:00,24.9,10.6,30.42,WNW,291,6.0,7.0,54,0.00,,,0.00,Wunderground v.1.15,2013-02-18 13:51:00,
2013-02-18 08:56:00,25.0,10.3,30.42,West,277,2.0,14.0,53,0.00,,,0.00,Wunderground v.1.15,2013-02-18 13:56:00,
2013-02-18 09:01:00,25.2,10.4,30.42,WNW,286,16.0,16.0,53,0.00,,,0.00,Wunderground v.1.15,2013-02-18 14:01:00,
2013-02-18 09:06:00,25.3,10.1,30.42,WSW,238,8.0,16.0,52,0.00,,,0.00,Wunderground v.1.15,2013-02-18 14:06:00,
2013-02-18 09:11:00,25.8,10.1,30.42,West,265,11.0,13.0,51,0.00,,,0.00,Wunderground v.1.15,2013-02-18 14:11:00,
2013-02-18 09:16:00,25.8,10.1,30.42,West,275,7.0,13.0,51,0.00,,,0.00,Wunderground v.1.15,2013-02-18 14:16:00,
2013-02-18 09:21:00,26.3,10.2,30.42,WSW,248,6.0,12.0,50,0.00,,,0.00,Wunderground v.1.15,2013-02-18 14:21:00,
2013-02-18 09:26:00,26.5,10.3,30.42,WNW,294,9.0,13.0,50,0.00,,,0.00,Wunderground v.1.15,2013-02-18 14:26:00,
2013-02-18 09:31:00,26.6,10.4,30.41,WNW,297,7.0,10.0,50,0.00,,,0.00,Wunderground v.1.15,2013-02-18 14:31:00,
2013-02-18 09:37:00,27.1,10.4,30.42,WNW,302,5.0,14.0,49,0.00,,,0.00,Wunderground v.1.15,2013-02-18 14:37:00,
2013-02-18 09:42:00,27.7,11.5,30.42,WNW,282,6.0,11.0,50,0.00,,,0.00,Wunderground v.1.15,2013-02-18 14:42:00,
2013-02-18 09:47:00,28.1,10.9,30.42,WSW,245,6.0,15.0,48,0.00,,,0.00,Wunderground v.1.15,2013-02-18 14:47:00,
2013-02-18 09:52:00,28.1,10.9,30.41,West,273,7.0,12.0,48,0.00,,,0.00,Wunderground v.1.15,2013-02-18 14:52:00,
2013-02-18 09:57:00,28.6,11.8,30.41,West,275,6.0,12.0,49,0.00,,,0.00,Wunderground v.1.15,2013-02-18 14:57:00,
2013-02-18 10:02:00,29.0,11.3,30.41,West,267,6.0,11.0,47,0.00,,,0.00,Wunderground v.1.15,2013-02-18 15:02:00,
2013-02-18 10:07:00,29.4,11.1,30.41,West,277,10.0,12.0,46,0.00,,,0.00,Wunderground v.1.15,2013-02-18 15:07:00,
2013-02-18 10:12:00,29.9,11.6,30.41,West,275,6.0,10.0,46,0.00,,,0.00,Wunderground v.1.15,2013-02-18 15:12:00,
2013-02-18 10:17:00,30.5,11.1,30.41,WSW,248,3.0,10.0,44,0.00,,,0.00,Wunderground v.1.15,2013-02-18 15:17:00,
2013-02-18 10:22:00,30.5,11.1,30.42,West,268,3.0,8.0,44,0.00,,,0.00,Wunderground v.1.15,2013-02-18 15:22:00,
2013-02-18 10:27:00,31.2,11.8,30.41,WSW,254,6.0,8.0,44,0.00,,,0.00,Wunderground v.1.15,2013-02-18 15:27:00,
2013-02-18 10:32:00,31.7,11.7,30.41,WSW,238,4.0,10.0,43,0.00,,,0.00,Wunderground v.1.15,2013-02-18 15:32:00,
2013-02-18 10:37:00,32.2,11.6,30.41,West,277,4.0,10.0,42,0.00,,,0.00,Wunderground v.1.15,2013-02-18 15:37:00,
2013-02-18 10:42:00,31.8,10.7,30.41,WSW,251,6.0,13.0,41,0.00,,,0.00,Wunderground v.1.15,2013-02-18 15:42:00,
2013-02-18 10:47:00,31.6,11.1,30.41,WSW,250,4.0,13.0,42,0.00,,,0.00,Wunderground v.1.15,2013-02-18 15:47:00,
2013-02-18 10:52:00,32.2,11.6,30.41,WNW,292,3.0,6.0,42,0.00,,,0.00,Wunderground v.1.15,2013-02-18 15:52:00,
2013-02-18 10:57:00,33.0,11.8,30.41,WSW,256,4.0,9.0,41,0.00,,,0.00,Wunderground v.1.15,2013-02-18 15:57:00,
2013-02-18 11:02:00,33.1,12.5,30.41,WNW,286,6.0,8.0,42,0.00,,,0.00,Wunderground v.1.15,2013-02-18 16:02:00,
2013-02-18 11:07:00,32.9,11.7,30.40,WNW,286,3.0,11.0,41,0.00,,,0.00,Wunderground v.1.15,2013-02-18 16:07:00,
2013-02-18 11:12:00,32.9,12.8,30.40,West,262,6.0,7.0,43,0.00,,,0.00,Wunderground v.1.15,2013-02-18 16:12:00,
2013-02-18 11:17:00,33.4,12.7,30.40,WNW,294,6.0,9.0,42,0.00,,,0.00,Wunderground v.1.15,2013-02-18 16:17:00,
2013-02-18 11:22:00,33.9,12.1,30.40,WSW,254,5.0,7.0,40,0.00,,,0.00,Wunderground v.1.15,2013-02-18 16:22:00,
2013-02-18 11:27:00,34.8,12.9,30.40,West,272,4.0,7.0,40,0.00,,,0.00,Wunderground v.1.15,2013-02-18 16:27:00,
2013-02-18 11:32:00,34.6,12.7,30.40,West,275,4.0,8.0,40,0.00,,,0.00,Wunderground v.1.15,2013-02-18 16:32:00,
2013-02-18 11:37:00,34.4,11.4,30.40,WSW,249,2.0,9.0,38,0.00,,,0.00,Wunderground v.1.15,2013-02-18 16:37:00,
2013-02-18 11:42:00,33.6,10.1,30.39,SW,234,1.0,4.0,37,0.00,,,0.00,Wunderground v.1.15,2013-02-18 16:42:00,
2013-02-18 11:47:00,35.2,14.4,30.39,WNW,294,3.0,7.0,42,0.00,,,0.00,Wunderground v.1.15,2013-02-18 16:47:00,
2013-02-18 11:52:00,35.3,12.8,30.38,West,260,0.0,4.0,39,0.00,,,0.00,Wunderground v.1.15,2013-02-18 16:52:00,
2013-02-18 11:57:00,34.6,10.3,30.38,ENE,69,6.0,6.0,36,0.00,,,0.00,Wunderground v.1.15,2013-02-18 16:57:00,
2013-02-18 12:02:00,34.3,10.7,30.38,SE,142,2.0,4.0,37,0.00,,,0.00,Wunderground v.1.15,2013-02-18 17:02:00,
2013-02-18 12:07:00,35.4,12.3,30.38,SSE,163,3.0,8.0,38,0.00,,,0.00,Wunderground v.1.15,2013-02-18 17:07:00,
2013-02-18 12:12:00,35.8,13.2,30.38,SSW,211,3.0,6.0,39,0.00,,,0.00,Wunderground v.1.15,2013-02-18 17:12:00,
2013-02-18 12:17:00,34.3,9.4,30.38,ESE,115,2.0,6.0,35,0.00,,,0.00,Wunderground v.1.15,2013-02-18 17:17:00,
2013-02-18 12:22:00,35.6,13.0,30.37,ESE,103,3.0,6.0,39,0.00,,,0.00,Wunderground v.1.15,2013-02-18 17:22:00,
2013-02-18 12:27:00,35.0,9.4,30.37,East,82,1.0,6.0,34,0.00,,,0.00,Wunderground v.1.15,2013-02-18 17:27:00,
2013-02-18 12:32:00,36.3,11.2,30.36,SSE,157,2.0,3.0,35,0.00,,,0.00,Wunderground v.1.15,2013-02-18 17:32:00,
2013-02-18 12:37:00,37.6,11.7,30.36,South,176,3.0,8.0,34,0.00,,,0.00,Wunderground v.1.15,2013-02-18 17:37:00,
2013-02-18 12:42:00,37.5,11.0,30.35,West,261,2.0,4.0,33,0.00,,,0.00,Wunderground v.1.15,2013-02-18 17:42:00,
2013-02-18 12:48:00,37.1,13.8,30.35,West,269,3.0,5.0,38,0.00,,,0.00,Wunderground v.1.15,2013-02-18 17:48:00,
2013-02-18 12:53:00,38.5,13.2,30.35,SSW,203,2.0,6.0,35,0.00,,,0.00,Wunderground v.1.15,2013-02-18 17:53:00,
2013-02-18 12:58:00,37.5,11.0,30.35,SW,217,1.0,7.0,33,0.00,,,0.00,Wunderground v.1.15,2013-02-18 17:58:00,
2013-02-18 13:03:00,38.8,13.4,30.34,WSW,252,1.0,3.0,35,0.00,,,0.00,Wunderground v.1.15,2013-02-18 18:03:00,
2013-02-18 13:08:00,38.2,11.6,30.34,NNW,340,0.0,5.0,33,0.00,,,0.00,Wunderground v.1.15,2013-02-18 18:08:00,
2013-02-18 13:13:00,38.5,13.2,30.34,SW,224,3.0,5.0,35,0.00,,,0.00,Wunderground v.1.15,2013-02-18 18:13:00,
2013-02-18 13:18:00,38.4,13.7,30.33,SE,144,6.0,7.0,36,0.00,,,0.00,Wunderground v.1.15,2013-02-18 18:18:00,
2013-02-18 13:23:00,40.2,13.3,30.33,SSW,210,3.0,6.0,33,0.00,,,0.00,Wunderground v.1.15,2013-02-18 18:23:00,
2013-02-18 13:28:00,39.6,13.5,30.33,SSW,200,2.0,6.0,34,0.00,,,0.00,Wunderground v.1.15,2013-02-18 18:28:00,
2013-02-18 13:33:00,39.2,11.8,30.33,South,172,4.0,6.0,32,0.00,,,0.00,Wunderground v.1.15,2013-02-18 18:33:00,
2013-02-18 13:38:00,39.1,12.4,30.33,South,190,3.0,11.0,33,0.00,,,0.00,Wunderground v.1.15,2013-02-18 18:38:00,
2013-02-18 13:43:00,40.1,11.8,30.32,SSE,155,4.0,7.0,31,0.00,,,0.00,Wunderground v.1.15,2013-02-18 18:43:00,
2013-02-18 13:48:00,40.0,13.2,30.32,South,177,2.0,7.0,33,0.00,,,0.00,Wunderground v.1.15,2013-02-18 18:48:00,
2013-02-18 13:53:00,40.2,12.6,30.32,SSW,192,3.0,4.0,32,0.00,,,0.00,Wunderground v.1.15,2013-02-18 18:53:00,
2013-02-18 13:58:00,40.9,13.3,30.31,SSE,150,4.0,6.0,32,0.00,,,0.00,Wunderground v.1.15,2013-02-18 18:58:00,
2013-02-18 14:03:00,41.5,13.8,30.31,South,175,4.0,6.0,32,0.00,,,0.00,Wunderground v.1.15,2013-02-18 19:03:00,
2013-02-18 14:08:00,39.9,10.2,30.31,ESE,114,1.0,6.0,29,0.00,,,0.00,Wunderground v.1.15,2013-02-18 19:08:00,
2013-02-18 14:13:00,40.6,11.5,30.31,SSE,168,3.0,5.0,30,0.00,,,0.00,Wunderground v.1.15,2013-02-18 19:13:00,
2013-02-18 14:18:00,41.0,13.4,30.31,South,179,7.0,7.0,32,0.00,,,0.00,Wunderground v.1.15,2013-02-18 19:18:00,
2013-02-18 14:23:00,41.5,13.8,30.30,SW,236,2.0,4.0,32,0.00,,,0.00,Wunderground v.1.15,2013-02-18 19:23:00,
2013-02-18 14:28:00,42.0,13.5,30.30,South,182,5.0,8.0,31,0.00,,,0.00,Wunderground v.1.15,2013-02-18 19:28:00,
2013-02-18 14:33:00,42.0,13.5,30.30,SE,128,1.0,5.0,31,0.00,,,0.00,Wunderground v.1.15,2013-02-18 19:33:00,
2013-02-18 14:38:00,42.7,13.4,30.30,South,184,5.0,7.0,30,0.00,,,0.00,Wunderground v.1.15,2013-02-18 19:38:00,
2013-02-18 14:43:00,42.5,13.2,30.30,South,178,1.0,9.0,30,0.00,,,0.00,Wunderground v.1.15,2013-02-18 19:43:00,
2013-02-18 14:48:00,42.7,14.1,30.29,SSE,151,2.0,9.0,31,0.00,,,0.00,Wunderground v.1.15,2013-02-18 19:48:00,
2013-02-18 14:53:00,42.2,12.9,30.29,SSE,150,2.0,5.0,30,0.00,,,0.00,Wunderground v.1.15,2013-02-18 19:53:00,
2013-02-18 14:58:00,41.8,12.6,30.29,SSW,205,2.0,5.0,30,0.00,,,0.00,Wunderground v.1.15,2013-02-18 19:58:00,
2013-02-18 15:03:00,42.6,14.8,30.29,South,183,5.0,7.0,32,0.00,,,0.00,Wunderground v.1.15,2013-02-18 20:03:00,
2013-02-18 15:08:00,42.1,12.1,30.29,SSW,202,4.0,7.0,29,0.00,,,0.00,Wunderground v.1.15,2013-02-18 20:08:00,
2013-02-18 15:13:00,41.9,11.9,30.29,SE,137,2.0,8.0,29,0.00,,,0.00,Wunderground v.1.15,2013-02-18 20:13:00,
2013-02-18 15:18:00,42.2,12.2,30.28,SSE,159,0.0,8.0,29,0.00,,,0.00,Wunderground v.1.15,2013-02-18 20:18:00,
2013-02-18 15:23:00,42.4,13.1,30.28,SE,144,1.0,6.0,30,0.00,,,0.00,Wunderground v.1.15,2013-02-18 20:23:00,
2013-02-18 15:28:00,42.3,13.8,30.29,SSE,165,3.0,8.0,31,0.00,,,0.00,Wunderground v.1.15,2013-02-18 20:28:00,
2013-02-18 15:33:00,42.2,13.7,30.29,SE,132,3.0,8.0,31,0.00,,,0.00,Wunderground v.1.15,2013-02-18 20:33:00,
2013-02-18 15:38:00,42.2,15.1,30.29,SE,146,3.0,8.0,33,0.00,,,0.00,Wunderground v.1.15,2013-02-18 20:38:00,
2013-02-18 15:43:00,41.5,13.1,30.28,SE,140,3.0,7.0,31,0.00,,,0.00,Wunderground v.1.15,2013-02-18 20:43:00,
2013-02-18 15:48:00,41.4,13.7,30.28,SE,140,2.0,7.0,32,0.00,,,0.00,Wunderground v.1.15,2013-02-18 20:48:00,
2013-02-18 15:53:00,41.7,14.0,30.28,South,173,7.0,9.0,32,0.00,,,0.00,Wunderground v.1.15,2013-02-18 20:53:00,
2013-02-18 15:58:00,41.8,14.8,30.28,SE,140,4.0,9.0,33,0.00,,,0.00,Wunderground v.1.15,2013-02-18 20:58:00,
2013-02-18 16:03:00,41.4,15.1,30.28,SSE,149,3.0,7.0,34,0.00,,,0.00,Wunderground v.1.15,2013-02-18 21:03:00,
2013-02-18 16:09:00,41.5,14.5,30.28,SE,146,2.0,7.0,33,0.00,,,0.00,Wunderground v.1.15,2013-02-18 21:09:00,
2013-02-18 16:14:00,41.3,14.3,30.28,SSE,164,6.0,6.0,33,0.00,,,0.00,Wunderground v.1.15,2013-02-18 21:14:00,
2013-02-18 16:19:00,41.4,15.1,30.28,SSE,159,1.0,8.0,34,0.00,,,0.00,Wunderground v.1.15,2013-02-18 21:19:00,
2013-02-18 16:24:00,41.2,13.5,30.28,SE,142,2.0,5.0,32,0.00,,,0.00,Wunderground v.1.15,2013-02-18 21:24:00,
2013-02-18 16:29:00,41.3,14.3,30.27,SSE,152,4.0,5.0,33,0.00,,,0.00,Wunderground v.1.15,2013-02-18 21:29:00,
2013-02-18 16:34:00,41.2,14.2,30.27,SE,142,4.0,5.0,33,0.00,,,0.00,Wunderground v.1.15,2013-02-18 21:34:00,
2013-02-18 16:39:00,41.0,14.1,30.27,SE,144,1.0,5.0,33,0.00,,,0.00,Wunderground v.1.15,2013-02-18 21:39:00,
2013-02-18 16:44:00,40.9,14.0,30.28,ESE,120,2.0,4.0,33,0.00,,,0.00,Wunderground v.1.15,2013-02-18 21:44:00,
2013-02-18 16:49:00,40.9,14.0,30.28,SSE,147,2.0,6.0,33,0.00,,,0.00,Wunderground v.1.15,2013-02-18 21:49:00,
2013-02-18 16:54:00,40.9,14.0,30.27,ESE,122,4.0,5.0,33,0.00,,,0.00,Wunderground v.1.15,2013-02-18 21:54:00,
2013-02-18 16:59:00,40.7,13.8,30.27,SE,142,3.0,5.0,33,0.00,,,0.00,Wunderground v.1.15,2013-02-18 21:59:00,
2013-02-18 17:04:00,40.5,13.6,30.27,SE,136,2.0,4.0,33,0.00,,,0.00,Wunderground v.1.15,2013-02-18 22:04:00,
2013-02-18 17:09:00,40.4,13.5,30.27,SE,142,3.0,4.0,33,0.00,,,0.00,Wunderground v.1.15,2013-02-18 22:09:00,
2013-02-18 17:14:00,40.2,13.3,30.27,SSE,157,2.0,6.0,33,0.00,,,0.00,Wunderground v.1.15,2013-02-18 22:14:00,
2013-02-18 17:19:00,40.0,13.2,30.27,SSE,157,2.0,6.0,33,0.00,,,0.00,Wunderground v.1.15,2013-02-18 22:19:00,
2013-02-18 17:24:00,39.7,12.9,30.28,SSE,157,3.0,3.0,33,0.00,,,0.00,Wunderground v.1.15,2013-02-18 22:24:00,
2013-02-18 17:29:00,39.5,13.4,30.28,SSE,157,3.0,4.0,34,0.00,,,0.00,Wunderground v.1.15,2013-02-18 22:29:00,
2013-02-18 17:34:00,39.1,13.7,30.28,SSE,157,1.0,2.0,35,0.00,,,0.00,Wunderground v.1.15,2013-02-18 22:34:00,
2013-02-18 17:39:00,39.0,13.0,30.28,SSE,157,2.0,3.0,34,0.00,,,0.00,Wunderground v.1.15,2013-02-18 22:39:00,
2013-02-18 17:44:00,38.8,13.4,30.28,SSE,157,2.0,2.0,35,0.00,,,0.00,Wunderground v.1.15,2013-02-18 22:44:00,
2013-02-18 17:49:00,38.6,13.3,30.28,SSE,157,1.0,4.0,35,0.00,,,0.00,Wunderground v.1.15,2013-02-18 22:49:00,
2013-02-18 17:54:00,38.5,12.5,30.28,SSE,157,1.0,2.0,34,0.00,,,0.00,Wunderground v.1.15,2013-02-18 22:54:00,
2013-02-18 17:59:00,38.3,13.0,30.28,SSE,157,0.0,3.0,35,0.00,,,0.00,Wunderground v.1.15,2013-02-18 22:59:00,
2013-02-18 18:04:00,38.3,13.0,30.28,SSE,157,1.0,2.0,35,0.00,,,0.00,Wunderground v.1.15,2013-02-18 23:04:00,
2013-02-18 18:09:00,38.0,12.7,30.28,SSE,157,2.0,2.0,35,0.00,,,0.00,Wunderground v.1.15,2013-02-18 23:09:00,
2013-02-18 18:14:00,37.9,12.6,30.28,SSE,157,1.0,2.0,35,0.00,,,0.00,Wunderground v.1.15,2013-02-18 23:14:00,
2013-02-18 18:19:00,37.7,13.1,30.29,SSE,157,1.0,2.0,36,0.00,,,0.00,Wunderground v.1.15,2013-02-18 23:19:00,
2013-02-18 18:24:00,37.4,13.5,30.29,SSE,157,1.0,2.0,37,0.00,,,0.00,Wunderground v.1.15,2013-02-18 23:24:00,
2013-02-18 18:29:00,37.3,13.4,30.28,SSE,157,2.0,3.0,37,0.00,,,0.00,Wunderground v.1.15,2013-02-18 23:29:00,
2013-02-18 18:34:00,37.3,13.4,30.28,SSE,157,2.0,2.0,37,0.00,,,0.00,Wunderground v.1.15,2013-02-18 23:34:00,
2013-02-18 18:39:00,37.3,13.4,30.28,SSE,157,0.0,3.0,37,0.00,,,0.00,Wunderground v.1.15,2013-02-18 23:39:00,
2013-02-18 18:44:00,37.2,13.9,30.28,SSE,157,1.0,2.0,38,0.00,,,0.00,Wunderground v.1.15,2013-02-18 23:44:00,
2013-02-18 18:49:00,37.1,13.2,30.28,SSE,155,3.0,3.0,37,0.00,,,0.00,Wunderground v.1.15,2013-02-18 23:49:00,
2013-02-18 18:54:00,37.0,13.7,30.28,SSE,155,2.0,3.0,38,0.00,,,0.00,Wunderground v.1.15,2013-02-18 23:54:00,
2013-02-18 18:59:00,36.9,13.6,30.28,SSE,152,2.0,3.0,38,0.00,,,0.00,Wunderground v.1.15,2013-02-18 23:59:00,
2013-02-18 19:04:00,36.9,13.6,30.28,SSE,148,2.0,3.0,38,0.00,,,0.00,Wunderground v.1.15,2013-02-19 00:04:00,
2013-02-18 19:09:00,36.7,14.0,30.28,SSE,157,2.0,4.0,39,0.00,,,0.00,Wunderground v.1.15,2013-02-19 00:09:00,
2013-02-18 19:14:00,36.5,13.9,30.27,SSE,157,2.0,3.0,39,0.00,,,0.00,Wunderground v.1.15,2013-02-19 00:14:00,
2013-02-18 19:19:00,36.6,13.9,30.27,SSE,153,2.0,4.0,39,0.00,,,0.00,Wunderground v.1.15,2013-02-19 00:19:00,
2013-02-18 19:24:00,36.5,13.9,30.27,SSE,148,2.0,3.0,39,0.00,,,0.00,Wunderground v.1.15,2013-02-19 00:24:00,
2013-02-18 19:29:00,36.5,13.9,30.27,SE,142,1.0,4.0,39,0.00,,,0.00,Wunderground v.1.15,2013-02-19 00:29:00,
2013-02-18 19:34:00,36.4,13.8,30.27,SE,142,2.0,3.0,39,0.00,,,0.00,Wunderground v.1.15,2013-02-19 00:34:00,
2013-02-18 19:39:00,36.2,13.6,30.27,SE,142,2.0,4.0,39,0.00,,,0.00,Wunderground v.1.15,2013-02-19 00:39:00,
2013-02-18 19:44:00,36.1,14.1,30.27,SE,142,2.0,3.0,40,0.00,,,0.00,Wunderground v.1.15,2013-02-19 00:44:00,
2013-02-18 19:49:00,36.2,14.2,30.27,SE,137,1.0,3.0,40,0.00,,,0.00,Wunderground v.1.15,2013-02-19 00:49:00,
2013-02-18 19:54:00,36.1,14.1,30.27,SE,137,2.0,2.0,40,0.00,,,0.00,Wunderground v.1.15,2013-02-19 00:54:00,
2013-02-18 19:59:00,35.9,13.9,30.26,SE,130,2.0,3.0,40,0.00,,,0.00,Wunderground v.1.15,2013-02-19 00:59:00,
2013-02-18 20:04:00,35.9,14.5,30.26,SE,140,3.0,3.0,41,0.00,,,0.00,Wunderground v.1.15,2013-02-19 01:04:00,
2013-02-18 20:09:00,35.8,14.4,30.26,SE,130,2.0,5.0,41,0.00,,,0.00,Wunderground v.1.15,2013-02-19 01:09:00,
2013-02-18 20:15:00,35.8,14.4,30.26,SE,141,3.0,4.0,41,0.00,,,0.00,Wunderground v.1.15,2013-02-19 01:15:00,
2013-02-18 20:20:00,35.8,14.4,30.26,SE,144,2.0,2.0,41,0.00,,,0.00,Wunderground v.1.15,2013-02-19 01:20:00,
2013-02-18 20:25:00,35.8,14.4,30.26,SE,144,2.0,3.0,41,0.00,,,0.00,Wunderground v.1.15,2013-02-19 01:25:00,
2013-02-18 20:30:00,35.8,14.9,30.26,SE,144,1.0,2.0,42,0.00,,,0.00,Wunderground v.1.15,2013-02-19 01:30:00,
2013-02-18 20:35:00,35.6,14.7,30.25,SE,144,3.0,3.0,42,0.00,,,0.00,Wunderground v.1.15,2013-02-19 01:35:00,
2013-02-18 20:40:00,35.7,15.4,30.25,SE,144,4.0,4.0,43,0.00,,,0.00,Wunderground v.1.15,2013-02-19 01:40:00,
2013-02-18 20:45:00,35.8,15.5,30.25,SE,144,2.0,4.0,43,0.00,,,0.00,Wunderground v.1.15,2013-02-19 01:45:00,
2013-02-18 20:50:00,36.0,15.6,30.25,SE,133,3.0,5.0,43,0.00,,,0.00,Wunderground v.1.15,2013-02-19 01:50:00,
2013-02-18 20:55:00,36.2,15.8,30.25,SSE,148,5.0,6.0,43,0.00,,,0.00,Wunderground v.1.15,2013-02-19 01:55:00,
2013-02-18 21:00:00,36.4,16.0,30.24,SSE,152,4.0,4.0,43,0.00,,,0.00,Wunderground v.1.15,2013-02-19 02:00:00,
2013-02-18 21:05:00,36.5,16.1,30.24,SSE,147,2.0,4.0,43,0.00,,,0.00,Wunderground v.1.15,2013-02-19 02:05:00,
2013-02-18 21:10:00,36.6,16.7,30.24,SE,143,4.0,4.0,44,0.00,,,0.00,Wunderground v.1.15,2013-02-19 02:10:00,
2013-02-18 21:15:00,36.6,16.7,30.24,SE,136,3.0,5.0,44,0.00,,,0.00,Wunderground v.1.15,2013-02-19 02:15:00,
2013-02-18 21:20:00,36.5,16.6,30.24,SE,134,6.0,6.0,44,0.00,,,0.00,Wunderground v.1.15,2013-02-19 02:20:00,
2013-02-18 21:25:00,36.8,16.9,30.24,SSE,147,2.0,6.0,44,0.00,,,0.00,Wunderground v.1.15,2013-02-19 02:25:00,
2013-02-18 21:30:00,36.9,16.5,30.23,SE,140,3.0,3.0,43,0.00,,,0.00,Wunderground v.1.15,2013-02-19 02:30:00,
2013-02-18 21:35:00,36.8,16.9,30.23,SE,137,4.0,5.0,44,0.00,,,0.00,Wunderground v.1.15,2013-02-19 02:35:00,
2013-02-18 21:41:00,36.9,16.5,30.23,SE,139,4.0,4.0,43,0.00,,,0.00,Wunderground v.1.15,2013-02-19 02:41:00,
2013-02-18 21:46:00,37.0,16.5,30.23,SSE,155,3.0,7.0,43,0.00,,,0.00,Wunderground v.1.15,2013-02-19 02:46:00,
2013-02-18 21:51:00,37.0,17.1,30.23,SSE,163,2.0,6.0,44,0.00,,,0.00,Wunderground v.1.15,2013-02-19 02:51:00,
2013-02-18 21:56:00,36.9,17.0,30.23,South,174,2.0,6.0,44,0.00,,,0.00,Wunderground v.1.15,2013-02-19 02:56:00,
2013-02-18 22:01:00,36.8,17.4,30.23,SSE,153,2.0,3.0,45,0.00,,,0.00,Wunderground v.1.15,2013-02-19 03:01:00,
2013-02-18 22:06:00,36.7,17.3,30.23,SE,146,2.0,4.0,45,0.00,,,0.00,Wunderground v.1.15,2013-02-19 03:06:00,
2013-02-18 22:11:00,36.7,17.3,30.22,SSE,150,2.0,3.0,45,0.00,,,0.00,Wunderground v.1.15,2013-02-19 03:11:00,
2013-02-18 22:16:00,36.7,17.3,30.22,SSE,149,3.0,4.0,45,0.00,,,0.00,Wunderground v.1.15,2013-02-19 03:16:00,
2013-02-18 22:21:00,36.7,17.8,30.22,SSE,148,2.0,3.0,46,0.00,,,0.00,Wunderground v.1.15,2013-02-19 03:21:00,
2013-02-18 22:26:00,36.6,17.7,30.22,SSE,153,1.0,3.0,46,0.00,,,0.00,Wunderground v.1.15,2013-02-19 03:26:00,
2013-02-18 22:31:00,36.4,17.6,30.22,SE,146,2.0,4.0,46,0.00,,,0.00,Wunderground v.1.15,2013-02-19 03:31:00,
2013-02-18 22:36:00,36.4,18.1,30.22,SSE,150,4.0,4.0,47,0.00,,,0.00,Wunderground v.1.15,2013-02-19 03:36:00,
2013-02-18 22:41:00,36.4,18.1,30.22,South,171,3.0,3.0,47,0.00,,,0.00,Wunderground v.1.15,2013-02-19 03:41:00,
2013-02-18 22:46:00,36.3,18.0,30.22,SSE,165,3.0,4.0,47,0.00,,,0.00,Wunderground v.1.15,2013-02-19 03:46:00,
2013-02-18 22:51:00,36.2,17.9,30.22,SSE,151,3.0,3.0,47,0.00,,,0.00,Wunderground v.1.15,2013-02-19 03:51:00,
2013-02-18 22:57:00,36.1,18.3,30.22,SE,146,3.0,4.0,48,0.00,,,0.00,Wunderground v.1.15,2013-02-19 03:57:00,
2013-02-18 23:02:00,36.2,18.4,30.21,SE,146,2.0,3.0,48,0.00,,,0.00,Wunderground v.1.15,2013-02-19 04:02:00,
2013-02-18 23:07:00,36.1,18.8,30.21,SSE,153,4.0,4.0,49,0.00,,,0.00,Wunderground v.1.15,2013-02-19 04:07:00,
2013-02-18 23:12:00,36.1,18.8,30.21,SSE,150,2.0,4.0,49,0.00,,,0.00,Wunderground v.1.15,2013-02-19 04:12:00,
2013-02-18 23:17:00,36.1,18.8,30.21,SSE,150,2.0,4.0,49,0.00,,,0.00,Wunderground v.1.15,2013-02-19 04:17:00,
2013-02-18 23:22:00,36.1,18.8,30.20,SSE,153,1.0,4.0,49,0.00,,,0.00,Wunderground v.1.15,2013-02-19 04:22:00,
2013-02-18 23:27:00,36.1,19.2,30.20,SSE,151,2.0,5.0,50,0.00,,,0.00,Wunderground v.1.15,2013-02-19 04:27:00,
2013-02-18 23:32:00,36.1,18.8,30.20,SSE,153,3.0,5.0,49,0.00,,,0.00,Wunderground v.1.15,2013-02-19 04:32:00,
2013-02-18 23:37:00,36.2,18.9,30.20,SE,146,1.0,5.0,49,0.00,,,0.00,Wunderground v.1.15,2013-02-19 04:37:00,
2013-02-18 23:42:00,36.2,18.9,30.20,SSE,157,3.0,6.0,49,0.00,,,0.00,Wunderground v.1.15,2013-02-19 04:42:00,
2013-02-18 23:47:00,36.2,18.9,30.20,South,169,3.0,6.0,49,0.00,,,0.00,Wunderground v.1.15,2013-02-19 04:47:00,
2013-02-18 23:52:00,36.2,18.9,30.20,SSE,154,2.0,4.0,49,0.00,,,0.00,Wunderground v.1.15,2013-02-19 04:52:00,
2013-02-18 23:57:00,36.2,19.3,30.20,SSE,161,2.0,4.0,50,0.00,,,0.00,Wunderground v.1.15,2013-02-19 04:57:00,